period_start,C,m1,H,J0,J1,J2,J3,J4,J5,JA,JB,JC,JD,JJ,JK,JN,#
2016-04-07 00:00:34,0.08,1.17,0.00,12.74,17.34,21.43,15.23,48.77,1019.55,2074.01,3056.17,2893.25,3283.88,599.93,619.12,9.50,0000 0000 0000 0000 000000
2016-04-07 00:05:35,0.09,1.18,0.00,12.81,17.37,21.46,15.16,48.79,1019.55,2074.00,3054.28,2891.95,3282.42,599.82,618.87,9.55,0000 0000 0000 0000 000000
2016-04-07 00:10:36,0.09,1.18,0.00,12.80,17.40,21.42,15.26,48.91,1019.55,2074.00,3052.52,2890.71,3281.07,600.51,619.55,9.60,0000 0000 0000 0000 000000
2016-04-07 00:15:38,0.10,1.18,0.00,12.77,17.43,21.48,15.22,48.98,1019.55,2074.00,3050.68,2889.42,3279.57,599.96,619.04,9.65,0000 0000 0000 0000 000000
2016-04-07 00:20:39,0.08,1.19,0.00,12.83,17.46,21.48,15.16,48.73,1019.55,2073.99,3048.86,2888.21,3278.08,600.11,619.13,9.70,0000 0000 0000 0000 000000
2016-04-07 00:25:40,0.09,1.19,0.00,12.89,17.49,21.48,15.21,48.77,1019.55,2073.97,3047.10,2886.93,3276.67,600.00,618.84,9.75,0000 0000 0000 0000 000000
2016-04-07 00:30:41,0.07,1.20,0.00,12.87,17.52,21.50,15.16,48.67,1019.55,2073.87,3045.30,2885.68,3275.29,599.98,618.78,9.80,0000 0000 0000 0000 000000
2016-04-07 00:35:43,0.06,1.20,0.00,12.91,17.56,21.52,15.20,48.86,1019.55,2073.54,3043.55,2884.49,3273.83,599.93,618.78,9.85,0000 0000 0000 0000 000000
2016-04-07 00:40:44,0.04,1.20,0.00,12.99,17.58,21.59,15.11,48.81,1019.55,2073.14,3041.78,2883.28,3272.44,599.78,618.49,9.90,0000 0000 0000 0000 000000
2016-04-07 00:45:45,0.09,1.21,0.00,13.03,17.62,21.64,15.16,48.83,1019.55,2073.02,3039.93,2881.89,3270.95,599.79,618.40,9.95,0000 0000 0000 0000 000000
2016-04-07 00:50:46,0.10,1.21,0.00,13.02,17.65,21.62,15.12,48.76,1019.57,2073.02,3038.01,2880.59,3269.50,599.79,618.20,10.00,0000 0000 0000 0000 000000
2016-04-07 00:55:48,0.09,1.22,0.00,13.08,17.68,21.70,15.18,48.97,1019.59,2073.00,3036.10,2879.41,3268.02,600.09,618.58,10.05,0000 0000 0000 0000 000000
2016-04-07 01:00:49,0.09,1.22,0.00,13.15,17.72,21.71,15.14,48.88,1019.62,2073.00,3034.13,2878.16,3266.48,600.30,618.68,10.10,0000 0000 0000 0000 000000
2016-04-07 01:05:50,0.09,1.23,0.00,13.16,17.76,21.74,15.17,48.74,1019.64,2072.97,3032.27,2876.82,3264.88,600.05,618.43,10.15,0000 0000 0000 0000 000000
2016-04-07 01:10:52,0.09,1.23,0.00,13.16,17.80,21.78,15.15,48.88,1019.65,2072.93,3030.34,2875.51,3263.46,600.14,618.52,10.20,0000 0000 0000 0000 000000
2016-04-07 01:15:53,0.05,1.24,0.00,13.24,17.83,21.82,15.23,48.88,1019.69,2072.72,3028.67,2874.29,3262.10,600.14,618.31,10.26,0000 0000 0000 0000 000000
2016-04-07 01:20:54,0.06,1.24,0.00,13.29,17.87,21.83,15.14,48.74,1019.73,2072.23,3026.80,2872.89,3260.51,599.79,617.91,10.31,0000 0000 0000 0000 000000
2016-04-07 01:25:55,0.09,1.24,0.00,13.29,17.91,21.88,15.18,48.69,1019.88,2072.02,3024.90,2871.58,3258.99,600.11,618.26,10.36,0000 0000 0000 0000 000000
2016-04-07 01:30:56,0.09,1.25,0.00,13.34,17.95,21.93,15.21,48.81,1019.92,2072.00,3022.97,2870.22,3257.42,600.12,618.23,10.41,0000 0000 0000 0000 000000
2016-04-07 01:35:58,0.10,1.25,0.00,13.42,17.98,21.94,15.22,48.91,1019.87,2072.00,3021.02,2868.82,3255.88,600.35,618.28,10.46,0000 0000 0000 0000 000000
2016-04-07 01:40:59,0.09,1.26,0.00,13.49,18.02,22.04,15.13,48.85,1019.93,2071.99,3019.18,2867.60,3254.48,599.81,617.65,10.51,0000 0000 0000 0000 000000
2016-04-07 01:46:00,0.09,1.26,0.00,13.56,18.06,22.09,15.25,49.01,1019.99,2071.96,3017.26,2866.27,3252.90,600.76,618.54,10.56,0000 0000 0000 0000 000000
2016-04-07 01:51:01,0.07,1.27,0.00,13.56,18.10,22.15,15.14,49.07,1020.03,2071.71,3015.28,2864.87,3251.41,599.69,617.43,10.61,0000 0000 0000 0000 000000
2016-04-07 01:56:03,0.06,1.27,0.00,13.57,18.14,22.12,15.16,48.99,1020.03,2071.19,3013.25,2863.50,3249.74,600.33,618.01,10.66,0000 0000 0000 0000 000000
2016-04-07 02:01:04,0.09,1.27,0.00,13.62,18.18,22.19,15.20,49.06,1020.03,2071.03,3011.34,2861.97,3248.08,600.52,618.14,10.71,0000 0000 0000 0000 000000
2016-04-07 02:06:05,0.11,1.28,0.00,13.70,18.23,22.25,15.08,48.92,1020.03,2071.00,3009.26,2860.59,3246.45,600.09,617.53,10.76,0000 0000 0000 0000 000000
2016-04-07 02:11:07,0.10,1.28,0.00,13.76,18.27,22.29,15.12,49.00,1020.03,2071.00,3007.43,2859.24,3244.78,600.29,617.60,10.81,0000 0000 0000 0000 000000
2016-04-07 02:16:08,0.10,1.29,0.00,13.76,18.31,22.32,15.15,48.98,1020.05,2070.99,3005.55,2857.79,3243.15,600.00,617.34,10.86,0000 0000 0000 0000 000000
2016-04-07 02:21:09,0.10,1.29,0.00,13.78,18.36,22.31,15.11,49.07,1020.19,2070.93,3003.62,2856.40,3241.55,599.88,617.21,10.91,0000 0000 0000 0000 000000
2016-04-07 02:26:11,0.05,1.30,0.00,13.87,18.40,22.29,15.14,49.13,1020.42,2070.45,3001.58,2854.89,3239.85,599.88,617.35,10.96,0000 0000 0000 0000 000000
2016-04-07 02:31:12,0.08,1.30,0.00,13.94,18.44,22.37,15.11,49.02,1020.51,2070.05,2999.74,2853.52,3238.25,600.19,617.34,11.01,0000 0000 0000 0000 000000
2016-04-07 02:36:13,0.10,1.31,0.00,13.92,18.48,22.49,15.16,49.13,1020.52,2070.01,2997.77,2852.13,3236.59,600.07,617.37,11.06,0000 0000 0000 0000 000000
2016-04-07 02:41:15,0.11,1.31,0.00,13.93,18.53,22.48,15.14,49.01,1020.52,2069.99,2995.77,2850.68,3234.95,599.93,617.14,11.11,0000 0000 0000 0000 000000
2016-04-07 02:46:16,0.09,1.32,0.00,14.03,18.56,22.60,15.14,49.06,1020.52,2069.98,2993.76,2849.38,3233.43,600.03,616.99,11.16,0000 0000 0000 0000 000000
2016-04-07 02:51:17,0.10,1.32,0.00,14.09,18.59,22.64,15.21,49.09,1020.52,2069.96,2991.71,2847.89,3231.76,600.51,617.41,11.21,0000 0000 0000 0000 000000
2016-04-07 02:56:18,0.08,1.33,0.00,14.09,18.63,22.70,15.13,48.98,1020.53,2069.82,2989.80,2846.56,3230.15,600.25,617.13,11.26,0000 0000 0000 0000 000000
2016-04-07 03:01:20,0.05,1.33,0.00,14.13,18.66,22.72,15.13,48.86,1020.52,2069.30,2987.73,2845.02,3228.44,600.37,617.15,11.31,0000 0000 0000 0000 000000
2016-04-07 03:06:21,0.10,1.33,0.00,14.22,18.70,22.78,15.05,48.84,1020.54,2069.03,2985.65,2843.61,3226.73,599.38,615.88,11.36,0000 0000 0000 0000 000000
2016-04-07 03:11:22,0.10,1.34,0.00,14.31,18.73,22.81,15.11,48.99,1020.54,2069.00,2983.61,2842.16,3225.07,600.13,616.52,11.41,0000 0000 0000 0000 000000
2016-04-07 03:16:24,0.11,1.35,0.00,14.39,18.76,22.88,15.12,48.91,1020.54,2068.99,2981.36,2840.62,3223.35,599.91,616.12,11.46,0000 0000 0000 0000 000000
2016-04-07 03:21:25,0.11,1.35,0.00,14.45,18.80,22.96,15.10,49.03,1020.55,2068.99,2979.06,2839.08,3221.59,599.79,615.92,11.51,0000 0000 0000 0000 000000
2016-04-07 03:26:26,0.11,1.36,0.00,14.50,18.83,23.05,15.08,49.02,1020.68,2068.96,2976.90,2837.56,3219.82,599.94,616.05,11.56,0000 0000 0000 0000 000000
2016-04-07 03:31:27,0.10,1.36,0.00,14.57,18.86,23.13,15.14,48.87,1020.88,2068.88,2974.70,2836.08,3218.10,599.85,615.93,11.61,0000 0000 0000 0000 000000
2016-04-07 03:36:29,0.06,1.37,0.00,14.64,18.89,23.17,15.13,48.84,1020.96,2068.41,2972.27,2834.47,3216.28,600.38,616.46,11.66,0000 0000 0000 0000 000000
2016-04-07 03:41:30,0.10,1.37,0.00,14.69,18.93,23.19,15.11,48.54,1021.00,2068.10,2969.97,2832.87,3214.48,600.15,616.04,11.71,0000 0000 0000 0000 000000
2016-04-07 03:46:31,0.11,1.38,0.00,14.76,18.96,23.23,15.08,48.63,1021.01,2068.00,2967.64,2831.36,3212.67,599.82,615.55,11.76,0000 0000 0000 0000 000000
2016-04-07 03:51:32,0.12,1.38,0.00,14.80,18.99,23.26,15.10,48.42,1021.01,2068.00,2965.35,2829.77,3210.86,600.18,615.92,11.81,0000 0000 0000 0000 000000
2016-04-07 03:56:33,0.11,1.39,0.00,14.87,19.03,23.34,15.09,48.35,1021.01,2068.00,2963.11,2828.25,3209.05,600.50,616.00,11.86,0000 0000 0000 0000 000000
2016-04-07 04:01:34,0.12,1.39,0.00,14.92,19.06,23.41,15.05,48.36,1021.01,2067.99,2960.80,2826.67,3207.29,599.80,615.20,11.91,0000 0000 0000 0000 000000
2016-04-07 04:06:36,0.12,1.40,0.00,14.97,19.10,23.53,15.09,48.53,1021.06,2067.96,2958.37,2825.06,3205.38,599.95,615.26,11.96,0000 0000 0000 0000 000000
2016-04-07 04:11:37,0.09,1.41,0.00,15.05,19.13,23.49,15.07,48.43,1021.16,2067.69,2955.92,2823.39,3203.47,600.16,615.33,12.01,0000 0000 0000 0000 000000
2016-04-07 04:16:38,0.10,1.41,0.00,15.10,19.17,23.55,15.04,48.34,1021.35,2067.24,2953.29,2821.71,3201.52,599.96,615.17,12.06,0000 0000 0000 0000 000000
2016-04-07 04:21:40,0.12,1.42,0.00,15.15,19.21,23.59,15.07,48.17,1021.43,2067.07,2950.72,2820.08,3199.62,599.90,615.07,12.11,0000 0000 0000 0000 000000
2016-04-07 04:26:41,0.12,1.42,0.00,15.20,19.25,23.66,15.00,48.20,1021.40,2067.01,2948.12,2818.40,3197.79,600.06,615.09,12.16,0000 0000 0000 0000 000000
2016-04-07 04:31:42,0.13,1.43,0.00,15.26,19.28,23.72,15.07,48.22,1021.49,2067.00,2945.53,2816.73,3195.90,599.98,615.30,12.21,0000 0000 0000 0000 000000
2016-04-07 04:36:43,0.13,1.44,0.00,15.30,19.32,23.77,14.99,48.08,1021.50,2066.99,2942.90,2815.14,3193.89,599.90,614.77,12.26,0000 0000 0000 0000 000000
2016-04-07 04:41:45,0.13,1.44,0.00,15.34,19.37,23.84,14.99,48.13,1021.50,2066.97,2940.16,2813.43,3191.91,599.91,614.70,12.31,0000 0000 0000 0000 000000
2016-04-07 04:46:46,0.10,1.45,0.00,15.39,19.41,23.82,15.03,48.07,1021.50,2066.67,2937.42,2811.69,3189.96,599.72,614.39,12.36,0000 0000 0000 0000 000000
2016-04-07 04:51:47,0.09,1.45,0.00,15.44,19.45,23.92,15.01,48.04,1021.51,2066.19,2934.74,2809.97,3188.01,599.72,614.31,12.41,0000 0000 0000 0000 000000
2016-04-07 04:56:48,0.11,1.46,0.00,15.48,19.50,23.96,15.10,48.36,1021.51,2066.03,2932.13,2808.39,3186.11,600.04,614.47,12.46,0000 0000 0000 0000 000000
2016-04-07 05:01:50,0.12,1.47,0.00,15.54,19.54,23.97,15.06,48.19,1021.51,2066.01,2929.62,2806.79,3184.31,600.04,614.42,12.51,0000 0000 0000 0000 000000
2016-04-07 05:06:51,0.13,1.47,0.00,15.58,19.59,24.01,15.08,48.22,1021.54,2065.99,2927.13,2805.14,3182.43,599.91,614.32,12.56,0000 0000 0000 0000 000000
2016-04-07 05:11:52,0.13,1.48,0.00,15.62,19.63,24.09,15.01,48.33,1021.65,2065.97,2924.30,2803.45,3180.45,599.71,614.07,12.61,0000 0000 0000 0000 000000
2016-04-07 05:16:54,0.12,1.49,0.00,15.65,19.68,24.10,15.06,48.27,1021.88,2065.81,2921.46,2801.71,3178.42,600.10,614.48,12.67,0000 0000 0000 0000 000000
2016-04-07 05:21:55,0.08,1.49,0.00,15.69,19.73,24.22,15.06,48.14,1021.93,2065.24,2918.64,2799.97,3176.48,599.88,614.19,12.72,0000 0000 0000 0000 000000
2016-04-07 05:26:56,0.12,1.50,0.00,15.72,19.78,24.21,15.08,48.36,1021.88,2065.03,2915.93,2798.27,3174.46,600.22,614.43,12.77,0000 0000 0000 0000 000000
2016-04-07 05:31:58,0.14,1.50,0.00,15.77,19.83,24.23,15.06,48.17,1021.84,2065.00,2913.26,2796.60,3172.56,600.22,614.28,12.82,0000 0000 0000 0000 000000
2016-04-07 05:36:59,0.14,1.51,0.00,15.81,19.88,24.29,15.00,48.30,1021.95,2064.99,2910.41,2794.85,3170.55,600.06,614.12,12.87,0000 0000 0000 0000 000000
2016-04-07 05:42:00,0.14,1.52,0.00,15.83,19.92,24.34,15.04,48.22,1021.99,2064.96,2907.36,2793.02,3168.47,599.82,613.87,12.92,0000 0000 0000 0000 000000
2016-04-07 05:47:02,0.08,1.52,0.00,15.88,19.97,24.37,15.02,48.21,1021.99,2064.63,2904.52,2791.30,3166.41,599.96,614.01,12.97,0000 0000 0000 0000 000000
2016-04-07 05:52:03,0.10,1.53,0.00,15.90,20.01,24.39,15.00,48.05,1021.99,2064.04,2901.61,2789.50,3164.34,599.92,613.91,13.02,0000 0000 0000 0000 000000
2016-04-07 05:57:04,0.14,1.53,0.00,15.95,20.06,24.47,15.02,48.13,1021.99,2064.00,2898.93,2787.81,3162.40,600.03,613.83,13.07,0000 0000 0000 0000 000000
2016-04-07 06:02:06,0.15,1.54,0.00,15.99,20.10,24.51,15.08,48.16,1022.00,2064.00,2896.04,2786.04,3160.32,600.37,614.10,13.12,0000 0000 0000 0000 000000
2016-04-07 06:07:07,0.14,1.55,0.00,16.01,20.14,24.53,15.02,48.20,1022.10,2063.98,2892.99,2784.20,3158.21,599.60,613.31,13.17,0000 0000 0000 0000 000000
2016-04-07 06:12:09,0.14,1.56,0.00,16.04,20.18,24.61,15.01,48.38,1022.19,2063.86,2890.00,2782.26,3156.07,599.78,613.53,13.22,0000 0000 0000 0000 000000
2016-04-07 06:17:10,0.10,1.56,0.00,16.09,20.22,24.64,15.00,48.49,1022.21,2063.34,2886.99,2780.40,3153.91,599.89,613.49,13.27,0000 0000 0000 0000 000000
2016-04-07 06:22:11,0.12,1.57,0.00,16.12,20.26,24.68,15.15,48.53,1022.32,2063.07,2884.22,2778.61,3151.87,600.28,613.87,13.32,0000 0000 0000 0000 000000
2016-04-07 06:27:12,0.13,1.57,0.00,16.17,20.30,24.72,15.05,48.60,1022.41,2063.01,2881.48,2776.88,3149.83,599.88,613.49,13.37,0000 0000 0000 0000 000000
2016-04-07 06:32:13,0.09,1.58,0.00,16.19,20.34,24.74,15.10,48.68,1022.44,2063.00,2879.59,2775.63,3148.40,600.40,613.99,13.42,0000 0000 0000 0000 000000
2016-04-07 06:37:15,0.09,1.58,0.00,16.22,20.37,24.79,15.04,48.48,1022.47,2062.98,2877.98,2774.37,3146.76,600.03,613.54,13.47,0000 0000 0000 0000 000000
2016-04-07 06:42:16,0.09,1.59,0.00,16.26,20.41,24.80,15.02,48.42,1022.48,2062.96,2876.04,2772.96,3145.13,599.88,613.34,13.52,0000 0000 0000 0000 000000
2016-04-07 06:47:17,0.05,1.59,0.00,16.30,20.44,24.82,15.01,48.42,1022.48,2062.64,2874.29,2771.73,3143.65,600.13,613.45,13.57,0000 0000 0000 0000 000000
2016-04-07 06:52:18,0.06,1.60,0.00,16.33,20.47,24.90,14.99,48.27,1022.48,2062.18,2872.50,2770.48,3142.11,599.85,613.19,13.62,0000 0000 0000 0000 000000
2016-04-07 06:57:20,0.12,1.60,0.00,16.36,20.50,24.93,15.07,48.28,1022.49,2062.04,2870.34,2769.02,3140.33,600.14,613.27,13.67,0000 0000 0000 0000 000000
2016-04-07 07:02:21,0.11,1.61,0.00,16.39,20.52,24.97,15.00,48.24,1022.49,2062.01,2868.19,2767.55,3138.53,600.05,613.21,13.72,0000 0000 0000 0000 000000
2016-04-07 07:07:22,0.08,1.61,0.00,16.42,20.54,25.01,15.00,48.42,1022.49,2062.00,2866.57,2766.42,3137.21,599.77,612.82,13.77,0000 0000 0000 0000 000000
2016-04-07 07:12:23,0.09,1.62,0.00,16.45,20.57,25.02,15.04,48.34,1022.57,2062.00,2864.84,2765.22,3135.70,600.07,613.13,13.82,0000 0000 0000 0000 000000
2016-04-07 07:17:25,0.08,1.62,0.00,16.48,20.59,25.02,15.01,48.34,1022.77,2061.99,2863.11,2763.98,3134.38,599.96,613.10,13.87,0000 0000 0000 0000 000000
2016-04-07 07:22:26,0.09,1.63,0.00,16.51,20.61,25.09,15.07,48.23,1022.91,2061.97,2861.50,2762.81,3132.92,600.28,613.48,13.92,0000 0000 0000 0000 000000
2016-04-07 07:27:28,0.08,1.63,0.00,16.52,20.63,25.11,15.07,48.35,1022.94,2061.86,2859.72,2761.58,3131.53,599.87,613.02,13.97,0000 0000 0000 0000 000000
2016-04-07 07:32:29,0.07,1.64,0.00,16.54,20.65,25.08,15.00,48.25,1022.96,2061.68,2857.94,2760.43,3130.05,599.94,613.06,14.02,0000 0000 0000 0000 000000
2016-04-07 07:37:30,0.05,1.64,0.00,16.57,20.67,25.05,15.00,48.17,1022.96,2061.30,2856.18,2759.28,3128.64,599.63,612.75,14.07,0000 0000 0000 0000 000000
2016-04-07 07:42:32,0.08,1.64,0.00,16.59,20.69,25.14,14.99,48.21,1022.97,2061.08,2854.27,2757.98,3127.12,599.90,613.01,14.12,0000 0000 0000 0000 000000
2016-04-07 07:47:33,0.08,1.65,0.00,16.62,20.72,25.20,14.97,48.13,1023.01,2061.03,2852.67,2756.95,3125.78,600.06,613.00,14.17,0000 0000 0000 0000 000000
2016-04-07 07:52:34,0.09,1.65,0.00,16.63,20.73,25.20,15.07,48.10,1023.27,2061.01,2851.09,2755.90,3124.51,600.49,613.63,14.22,0000 0000 0000 0000 000000
2016-04-07 07:57:35,0.07,1.66,0.00,16.64,20.75,25.14,15.01,47.96,1023.44,2061.00,2849.63,2754.94,3123.34,599.91,613.13,14.27,0000 0000 0000 0000 000000
2016-04-07 08:02:37,0.09,1.66,0.00,16.66,20.77,25.13,15.08,47.98,1023.45,2061.00,2848.18,2753.90,3122.09,600.04,613.29,14.32,0000 0000 0000 0000 000000
2016-04-07 08:07:38,0.15,1.67,0.00,16.66,20.79,25.08,15.04,47.88,1023.46,2061.00,2845.55,2752.32,3120.14,600.44,613.63,14.37,0000 0000 0000 0000 000000
2016-04-07 08:12:39,0.19,1.68,0.00,16.68,20.82,25.17,15.02,47.79,1023.47,2061.00,2842.21,2750.22,3117.53,599.74,612.88,14.42,0000 0000 0000 0000 000000
2016-04-07 08:17:40,0.17,1.68,0.00,16.69,20.84,25.25,14.97,47.93,1023.48,2060.97,2838.85,2747.95,3114.97,600.08,613.20,14.47,0000 0000 0000 0000 000000
2016-04-07 08:22:41,0.19,1.69,0.00,16.70,20.87,25.30,15.03,47.90,1023.48,2060.98,2835.54,2745.80,3112.40,600.07,613.25,14.52,0000 0000 0000 0000 000000
2016-04-07 08:27:43,0.31,1.71,0.00,16.71,20.89,25.33,15.06,47.98,1023.55,2060.96,2830.15,2742.28,3108.43,599.87,613.21,14.57,0000 0000 0000 0000 000000
2016-04-07 08:32:44,0.24,1.72,0.00,16.74,20.92,25.31,15.02,48.02,1023.74,2060.82,2825.09,2738.92,3104.57,600.15,613.30,14.62,0000 0000 0000 0000 000000
2016-04-07 08:37:45,0.19,1.73,0.00,16.74,20.94,25.35,15.06,48.04,1023.86,2060.38,2820.86,2736.14,3101.33,600.26,613.46,14.67,0000 0000 0000 0000 000000
2016-04-07 08:42:46,0.21,1.74,0.00,16.75,20.98,25.39,15.02,48.03,1023.88,2060.07,2816.49,2733.20,3097.99,599.76,613.08,14.72,0000 0000 0000 0000 000000
2016-04-07 08:47:48,0.27,1.75,0.00,16.77,21.00,25.42,14.97,48.17,1023.93,2060.03,2811.51,2729.97,3094.23,599.86,613.17,14.77,0000 0000 0000 0000 000000
2016-04-07 08:52:49,0.35,1.77,0.00,16.77,21.03,25.38,15.05,48.23,1023.94,2060.00,2805.42,2725.99,3089.78,600.16,613.40,14.82,0000 0000 0000 0000 000000
2016-04-07 08:57:50,0.24,1.79,0.00,16.79,21.05,25.44,15.00,48.15,1023.97,2060.00,2800.15,2722.56,3085.89,600.28,613.48,14.87,0000 0000 0000 0000 000000
2016-04-07 09:02:51,0.24,1.80,0.00,16.81,21.07,25.45,15.02,48.08,1024.01,2059.99,2795.93,2719.88,3082.76,599.90,613.09,14.92,0000 0000 0000 0000 000000
2016-04-07 09:07:53,0.40,1.81,0.00,16.82,21.09,25.50,15.02,47.93,1024.03,2059.99,2789.21,2715.57,3077.96,600.13,613.37,14.98,0000 0000 0000 0000 000000
2016-04-07 09:12:54,0.39,1.84,0.00,16.83,21.12,25.48,15.04,48.08,1023.97,2059.97,2781.64,2710.77,3072.59,600.46,613.57,15.03,0000 0000 0000 0000 000000
2016-04-07 09:17:56,0.20,1.85,0.00,16.85,21.14,25.50,15.09,48.13,1023.95,2059.74,2776.51,2707.49,3068.99,600.11,613.19,15.08,0000 0000 0000 0000 000000
2016-04-07 09:22:57,0.13,1.86,0.00,16.85,21.17,25.53,15.01,48.13,1024.00,2059.48,2773.54,2705.58,3066.66,600.03,613.15,15.13,0000 0000 0000 0000 000000
2016-04-07 09:27:59,0.15,1.86,0.00,16.85,21.19,25.55,15.03,48.14,1024.22,2059.10,2770.18,2703.47,3064.29,599.67,612.88,15.18,0000 0000 0000 0000 000000
2016-04-07 09:33:00,0.16,1.87,0.00,16.87,21.21,25.57,15.02,47.86,1024.18,2059.05,2767.02,2701.44,3061.88,600.22,613.43,15.23,0000 0000 0000 0000 000000
2016-04-07 09:38:01,0.12,1.88,0.00,16.87,21.23,25.55,15.00,47.88,1024.25,2059.01,2764.61,2699.79,3060.02,600.02,613.21,15.28,0000 0000 0000 0000 000000
2016-04-07 09:43:03,0.10,1.88,0.00,16.87,21.24,25.54,15.06,48.06,1024.32,2059.01,2762.67,2698.54,3058.50,600.22,613.45,15.33,0000 0000 0000 0000 000000
2016-04-07 09:48:04,0.11,1.89,0.00,16.87,21.27,25.58,15.09,48.17,1024.41,2059.00,2760.68,2697.21,3056.84,600.45,613.77,15.38,0000 0000 0000 0000 000000
2016-04-07 09:53:05,0.11,1.90,0.00,16.88,21.28,25.59,15.00,47.89,1024.43,2059.00,2758.59,2695.81,3055.26,599.87,613.11,15.43,0000 0000 0000 0000 000000
2016-04-07 09:58:07,0.11,1.90,0.00,16.88,21.30,25.58,14.99,47.86,1024.43,2058.99,2756.59,2694.49,3053.59,599.76,613.06,15.48,0000 0000 0000 0000 000000
2016-04-07 10:03:08,0.09,1.91,0.00,16.85,21.32,25.59,15.06,48.01,1024.48,2058.98,2754.73,2693.33,3052.17,600.07,613.49,15.53,0000 0000 0000 0000 000000
2016-04-07 10:08:10,0.09,1.91,0.00,16.82,21.34,25.59,15.08,47.81,1024.76,2058.96,2753.05,2692.18,3050.79,600.31,613.92,15.58,0000 0000 0000 0000 000000
2016-04-07 10:13:11,0.08,1.92,0.00,16.78,21.35,25.57,15.05,48.14,1024.90,2058.95,2751.67,2691.20,3049.60,599.59,613.43,15.63,0000 0000 0000 0000 000000
2016-04-07 10:18:12,0.06,1.92,0.00,16.76,21.37,25.52,15.10,47.94,1024.92,2058.85,2750.30,2690.19,3048.34,599.86,613.75,15.68,0000 0000 0000 0000 000000
2016-04-07 10:23:13,0.06,1.93,0.00,16.73,21.37,25.50,15.01,47.98,1024.92,2058.56,2748.57,2689.12,3046.99,599.88,613.78,15.73,0000 0000 0000 0000 000000
2016-04-07 10:28:15,0.08,1.93,0.00,16.70,21.39,25.46,15.10,48.11,1024.92,2058.37,2746.88,2688.05,3045.69,600.14,614.11,15.78,0000 0000 0000 0000 000000
2016-04-07 10:33:16,0.06,1.93,0.00,16.68,21.39,25.49,14.98,47.82,1024.92,2058.15,2745.44,2687.10,3044.52,599.77,613.79,15.83,0000 0000 0000 0000 000000
2016-04-07 10:38:17,0.05,1.93,0.00,16.64,21.40,25.54,15.07,48.16,1024.92,2058.09,2744.35,2686.53,3043.67,600.28,614.33,15.88,0000 0000 0000 0000 000000
2016-04-07 10:43:18,0.04,1.94,0.00,16.60,21.40,25.48,15.14,48.08,1024.92,2058.05,2743.28,2685.94,3042.85,600.46,614.59,15.93,0000 0000 0000 0000 000000
2016-04-07 10:48:20,0.07,1.94,0.00,16.57,21.41,25.49,15.06,47.98,1024.92,2058.07,2742.05,2685.10,3041.84,599.87,614.09,15.98,0000 0000 0000 0000 000000
2016-04-07 10:53:21,0.07,1.94,0.00,16.54,21.41,25.49,15.01,48.06,1024.92,2058.03,2740.82,2684.33,3040.87,599.58,613.91,16.03,0000 0000 0000 0000 000000
2016-04-07 10:58:22,0.07,1.95,0.00,16.51,21.41,25.48,15.06,47.99,1024.91,2058.03,2739.50,2683.48,3039.89,599.84,614.36,16.08,0000 0000 0000 0000 000000
2016-04-07 11:03:23,0.05,1.95,0.00,16.49,21.41,25.45,15.12,47.77,1024.92,2058.06,2738.48,2682.85,3038.91,600.16,614.51,16.13,0000 0000 0000 0000 000000
2016-04-07 11:08:25,0.06,1.96,0.00,16.47,21.40,25.45,15.04,47.94,1024.92,2058.02,2737.09,2682.00,3037.84,599.62,614.06,16.18,0000 0000 0000 0000 000000
2016-04-07 11:13:26,0.08,1.96,0.00,16.42,21.39,25.45,15.08,48.10,1024.92,2058.03,2735.78,2681.12,3036.79,599.96,614.50,16.23,0000 0000 0000 0000 000000
2016-04-07 11:18:28,0.08,1.96,0.00,16.38,21.39,25.41,15.06,48.06,1024.92,2058.03,2734.36,2680.22,3035.66,599.69,614.29,16.28,0000 0000 0000 0000 000000
2016-04-07 11:23:29,0.07,1.97,0.00,16.36,21.39,25.42,14.98,47.94,1024.92,2058.03,2733.01,2679.41,3034.62,599.92,614.60,16.33,0000 0000 0000 0000 000000
2016-04-07 11:28:30,0.08,1.97,0.00,16.33,21.39,25.50,15.01,48.08,1024.92,2058.05,2731.67,2678.55,3033.54,599.45,614.24,16.38,0000 0000 0000 0000 000000
2016-04-07 11:33:31,0.06,1.97,0.00,16.30,21.37,25.45,15.11,48.19,1024.92,2058.03,2730.33,2677.81,3032.49,600.01,614.81,16.43,0000 0000 0000 0000 000000
2016-04-07 11:38:32,0.06,1.98,0.00,16.27,21.36,25.43,15.14,48.41,1024.92,2058.06,2729.09,2676.99,3031.52,600.23,615.07,16.48,0000 0000 0000 0000 000000
2016-04-07 11:43:34,0.08,1.98,0.00,16.26,21.34,25.43,15.09,48.25,1024.92,2058.09,2727.86,2676.16,3030.60,599.86,614.82,16.53,0000 0000 0000 0000 000000
2016-04-07 11:48:35,0.07,1.98,0.00,16.22,21.34,25.39,15.14,48.07,1024.92,2058.12,2726.69,2675.50,3029.70,600.54,615.49,16.58,0000 0000 0000 0000 000000
2016-04-07 11:53:36,0.05,1.99,0.00,16.18,21.32,25.34,15.09,47.98,1024.91,2058.13,2725.43,2674.81,3028.69,600.04,615.05,16.63,0000 0000 0000 0000 000000
2016-04-07 11:58:37,0.09,1.99,0.00,16.17,21.31,25.39,15.10,48.01,1024.91,2058.38,2724.24,2674.03,3027.85,599.96,615.20,16.68,0000 0000 0000 0000 000000
2016-04-07 12:03:38,0.08,2.00,0.00,16.13,21.29,25.32,15.08,47.92,1024.90,2058.52,2722.89,2673.21,3026.90,600.19,615.43,16.73,0000 0000 0000 0000 000000
2016-04-07 12:08:39,0.10,2.00,0.00,16.10,21.28,25.35,15.11,48.06,1024.85,2058.86,2721.73,2672.71,3026.03,600.21,615.44,16.78,0000 0000 0000 0000 000000
2016-04-07 12:13:41,0.06,2.01,0.00,16.09,21.26,25.28,15.11,48.16,1024.87,2058.96,2720.54,2672.01,3025.14,600.23,615.48,16.83,0000 0000 0000 0000 000000
2016-04-07 12:18:42,0.07,2.01,0.00,16.08,21.24,25.31,15.13,47.98,1024.89,2058.98,2719.45,2671.23,3024.26,600.15,615.53,16.88,0000 0000 0000 0000 000000
2016-04-07 12:23:43,0.06,2.01,0.00,16.05,21.22,25.29,15.09,48.12,1024.89,2058.98,2718.23,2670.56,3023.44,599.65,614.96,16.93,0000 0000 0000 0000 000000
2016-04-07 12:28:45,0.04,2.02,0.00,16.02,21.21,25.24,15.14,48.07,1024.91,2058.98,2717.42,2670.00,3022.51,600.01,615.41,16.98,0000 0000 0000 0000 000000
2016-04-07 12:33:46,0.05,2.02,0.00,15.99,21.19,25.28,15.07,47.94,1024.92,2058.99,2716.62,2669.39,3021.88,599.70,615.22,17.03,0000 0000 0000 0000 000000
2016-04-07 12:38:48,0.03,2.02,0.00,15.96,21.17,25.14,15.18,47.97,1024.92,2058.99,2715.75,2668.99,3021.06,600.14,615.58,17.08,0000 0000 0000 0000 000000
2016-04-07 12:43:49,0.06,2.02,0.00,15.93,21.14,25.21,15.15,48.11,1024.92,2058.99,2714.82,2668.45,3020.46,600.26,615.88,17.13,0000 0000 0000 0000 000000
2016-04-07 12:48:50,0.04,2.03,0.00,15.92,21.12,25.22,15.15,48.05,1024.92,2058.99,2713.60,2667.88,3019.82,600.22,615.83,17.18,0000 0000 0000 0000 000000
2016-04-07 12:53:51,0.06,2.03,0.00,15.90,21.09,25.10,15.12,48.09,1024.92,2059.00,2712.26,2667.07,3018.94,599.94,615.63,17.23,0000 0000 0000 0000 000000